TimeEST,TemperatureF,Dew PointF,Humidity,Sea Level PressureIn,VisibilityMPH,Wind Direction,Wind SpeedMPH,Gust SpeedMPH,PrecipitationIn,Events,Conditions,WindDirDegrees,DateUTC
12:15 AM,28.4,24.8,86,30.28,7.0,Calm,Calm,-,N/A,,Overcast,0,2012-12-04 05:15:00
12:35 AM,30.2,26.6,86,30.27,0.8,Calm,Calm,-,N/A,,Overcast,0,2012-12-04 05:35:00
12:55 AM,30.2,26.6,86,30.28,0.2,Calm,Calm,-,N/A,,Overcast,0,2012-12-04 05:55:00
1:15 AM,30.2,28.4,93,30.28,0.2,Calm,Calm,-,N/A,,Overcast,0,2012-12-04 06:15:00
1:35 AM,30.2,28.4,93,30.28,0.2,Calm,Calm,-,N/A,,Overcast,0,2012-12-04 06:35:00
1:55 AM,30.2,28.4,93,30.27,0.8,Calm,Calm,-,N/A,,Overcast,0,2012-12-04 06:55:00
2:15 AM,32.0,28.4,87,30.28,0.2,Calm,Calm,-,N/A,,Overcast,0,2012-12-04 07:15:00
2:35 AM,32.0,28.4,87,30.28,0.2,SW,3.5,-,N/A,,Overcast,230,2012-12-04 07:35:00
2:55 AM,32.0,30.2,93,30.29,0.2,WSW,4.6,-,N/A,,Overcast,240,2012-12-04 07:55:00
3:15 AM,32.0,30.2,93,30.28,0.2,Calm,Calm,-,N/A,,Overcast,0,2012-12-04 08:15:00
3:55 AM,32.0,30.2,93,30.28,0.2,Calm,Calm,-,N/A,,Overcast,0,2012-12-04 08:55:00
4:15 AM,32.0,30.2,93,30.28,0.5,Calm,Calm,-,N/A,,Overcast,0,2012-12-04 09:15:00
4:35 AM,32.0,30.2,93,30.27,0.8,Calm,Calm,-,N/A,,Overcast,0,2012-12-04 09:35:00
5:15 AM,33.8,30.2,87,30.27,1.8,Calm,Calm,-,N/A,,Overcast,0,2012-12-04 10:15:00
5:35 AM,32.0,30.2,93,30.27,3.0,WSW,3.5,-,N/A,,Overcast,250,2012-12-04 10:35:00
5:55 AM,33.8,30.2,87,30.28,3.0,Calm,Calm,-,N/A,,Overcast,0,2012-12-04 10:55:00
6:15 AM,33.8,30.2,87,30.28,5.0,Calm,Calm,-,N/A,,Overcast,0,2012-12-04 11:15:00
6:35 AM,33.8,30.2,87,30.28,4.0,Calm,Calm,-,N/A,,Overcast,0,2012-12-04 11:35:00
7:15 AM,33.8,30.2,87,30.28,0.8,Calm,Calm,-,N/A,,Overcast,0,2012-12-04 12:15:00
7:35 AM,33.8,30.2,87,30.28,1.8,Calm,Calm,-,N/A,,Overcast,0,2012-12-04 12:35:00
7:55 AM,33.8,30.2,87,30.28,1.8,Calm,Calm,-,N/A,,Overcast,0,2012-12-04 12:55:00
8:15 AM,33.8,30.2,87,30.28,3.0,Calm,Calm,-,N/A,,Overcast,0,2012-12-04 13:15:00
8:35 AM,33.8,32.0,93,30.28,4.0,Calm,Calm,-,N/A,,Overcast,0,2012-12-04 13:35:00
9:15 AM,35.6,32.0,87,30.27,4.0,Calm,Calm,-,N/A,,Overcast,0,2012-12-04 14:15:00
9:35 AM,35.6,33.8,93,30.27,4.0,Calm,Calm,-,N/A,,Overcast,0,2012-12-04 14:35:00
9:55 AM,35.6,33.8,93,30.27,2.5,Calm,Calm,-,N/A,,Overcast,0,2012-12-04 14:55:00
10:15 AM,35.6,33.8,93,30.26,2.0,Calm,Calm,-,N/A,,Overcast,0,2012-12-04 15:15:00
10:35 AM,35.6,33.8,93,30.26,2.0,Calm,Calm,-,N/A,,Overcast,0,2012-12-04 15:35:00
10:55 AM,35.6,33.8,93,30.24,2.5,Calm,Calm,-,N/A,,Overcast,0,2012-12-04 15:55:00
11:15 AM,37.4,33.8,87,30.22,4.0,Calm,Calm,-,N/A,,Overcast,0,2012-12-04 16:15:00
11:35 AM,37.4,33.8,87,30.22,2.0,Calm,Calm,-,N/A,,Overcast,0,2012-12-04 16:35:00
11:55 AM,37.4,33.8,87,30.21,0.5,Calm,Calm,-,N/A,,Overcast,0,2012-12-04 16:55:00
12:15 PM,37.4,33.8,87,30.20,0.2,Calm,Calm,-,N/A,,Overcast,0,2012-12-04 17:15:00
12:35 PM,37.4,35.6,93,30.19,0.2,Calm,Calm,-,N/A,,Overcast,0,2012-12-04 17:35:00
1:15 PM,37.4,35.6,93,30.17,0.5,Calm,Calm,-,N/A,,Overcast,0,2012-12-04 18:15:00
1:35 PM,37.4,35.6,93,30.16,0.8,Calm,Calm,-,N/A,,Overcast,0,2012-12-04 18:35:00
1:55 PM,37.4,35.6,93,30.16,0.8,Calm,Calm,-,N/A,,Overcast,0,2012-12-04 18:55:00
2:15 PM,37.4,35.6,93,30.15,0.8,Calm,Calm,-,N/A,,Overcast,0,2012-12-04 19:15:00
2:35 PM,39.2,35.6,87,30.14,0.8,Calm,Calm,-,N/A,,Overcast,0,2012-12-04 19:35:00
2:55 PM,39.2,35.6,87,30.14,0.5,Calm,Calm,-,N/A,,Overcast,0,2012-12-04 19:55:00
3:15 PM,39.2,35.6,87,30.13,0.5,Calm,Calm,-,N/A,,Overcast,0,2012-12-04 20:15:00
3:55 PM,39.2,35.6,87,30.12,0.5,Calm,Calm,-,N/A,,Overcast,0,2012-12-04 20:55:00
4:15 PM,39.2,35.6,87,30.12,0.2,Calm,Calm,-,N/A,,Overcast,0,2012-12-04 21:15:00
4:35 PM,39.2,35.6,87,30.12,0.5,Calm,Calm,-,N/A,,Overcast,0,2012-12-04 21:35:00
4:55 PM,39.2,35.6,87,30.11,0.8,Calm,Calm,-,N/A,,Overcast,0,2012-12-04 21:55:00
5:35 PM,39.2,37.4,93,30.09,0.5,Calm,Calm,-,N/A,,Overcast,0,2012-12-04 22:35:00
5:55 PM,39.2,35.6,87,30.09,0.5,Calm,Calm,-,N/A,,Overcast,0,2012-12-04 22:55:00
6:15 PM,39.2,35.6,87,30.09,0.5,Calm,Calm,-,N/A,,Overcast,0,2012-12-04 23:15:00
6:35 PM,39.2,37.4,93,30.07,0.2,Calm,Calm,-,N/A,,Overcast,0,2012-12-04 23:35:00
6:55 PM,39.2,35.6,87,30.06,0.5,Calm,Calm,-,N/A,,Overcast,0,2012-12-04 23:55:00
7:15 PM,39.2,37.4,93,30.05,0.5,Calm,Calm,-,N/A,,Overcast,0,2012-12-05 00:15:00
7:35 PM,39.2,35.6,87,30.04,0.2,Calm,Calm,-,N/A,,Overcast,0,2012-12-05 00:35:00
7:55 PM,39.2,37.4,93,30.03,0.5,Calm,Calm,-,N/A,,Overcast,0,2012-12-05 00:55:00
8:15 PM,39.2,35.6,87,30.02,0.5,Calm,Calm,-,N/A,,Overcast,0,2012-12-05 01:15:00
8:35 PM,39.2,37.4,93,30.01,0.5,Calm,Calm,-,N/A,,Overcast,0,2012-12-05 01:35:00
8:55 PM,39.2,37.4,93,30.00,0.5,Calm,Calm,-,N/A,,Overcast,0,2012-12-05 01:55:00
9:15 PM,39.2,37.4,93,29.99,0.5,Calm,Calm,-,N/A,,Overcast,0,2012-12-05 02:15:00
9:35 PM,39.2,37.4,93,29.98,0.2,Calm,Calm,-,N/A,,Overcast,0,2012-12-05 02:35:00
9:55 PM,39.2,37.4,93,29.97,0.2,Calm,Calm,-,N/A,,Overcast,0,2012-12-05 02:55:00
10:15 PM,39.2,37.4,93,29.96,0.2,Calm,Calm,-,N/A,,Overcast,0,2012-12-05 03:15:00
10:35 PM,39.2,37.4,93,29.95,0.2,Calm,Calm,-,N/A,,Overcast,0,2012-12-05 03:35:00
10:55 PM,39.2,37.4,93,29.94,0.2,Calm,Calm,-,N/A,,Overcast,0,2012-12-05 03:55:00
11:15 PM,39.2,37.4,93,29.93,0.2,Calm,Calm,-,N/A,,Overcast,0,2012-12-05 04:15:00
11:35 PM,39.2,37.4,93,29.91,0.2,Calm,Calm,-,N/A,,Overcast,0,2012-12-05 04:35:00
11:55 PM,39.2,37.4,93,29.90,0.2,Calm,Calm,-,N/A,,Overcast,0,2012-12-05 04:55:00